Regional Weather Roundup
Issued by NWS Pendleton, OR

Home | Current Version | Previous Version | Text Only | Print | Product List | Glossary On
Versions: 1 2 3 4 5 6 7 8 9 10 11 12 13 14 15 16 17 18 19 20 21 22 23 24 25 26 27 28 29 30 31 32 33 34 35 36 37 38 39 40 41 42 43 44 45 46 47 48 49 50
000
ASUS46 KPDT 300425
RWRPDT
PENDLETON REGIONAL WEATHER ROUNDUP
NATIONAL WEATHER SERVICE PENDLETON OREGON
900 PM PDT THU SEP 29 2016

NOTE: FAIR INDICATES FEW OR NO CLOUDS BELOW 12,000 FEET WITH NO
SIGNIFICANT WEATHER AND/OR OBSTRUCTIONS TO VISIBILITY.

# INDICATES UNOFFICIAL STATION AND DATA

WAZ520-300510-
EAST SLOPES OF WASHINGTON CASCADES

CITY            SKY/WX      TMP DP  RH  WIND    PRES   REMARKS
#CLE ELUM HS    N/A         54  45  71  W7      29.93S
#CLE ELUM LAKE  N/A         52  45  77  CALM    29.91R
#GLENWOOD       N/A         57  49  75  S2      29.94R
#MANASTASH CYN  N/A         55  43  64  CALM    29.94S
#NELSON 3SW     N/A         49  43  80  CALM    30.14F
#NILE           N/A         57  42  57  NW1     29.21R
#RONALD 2NW     N/A         51  N/A N/A CALM    30.05S
#TEANAWAY 4NE   N/A         54  47  77  CALM    N/A
#TROUT LAKE 1NE N/A         58  49  72  W3      29.95S
#TROUT LAKE 1E  N/A         56  49  77  CALM    29.96S
$$

WAZ521-300510-
SIMCOE HIGHLANDS

CITY            SKY/WX      TMP DP  RH  WIND    PRES   REMARKS
#CENTERVILLE 1SWN/A         57  46  67  W15     29.89F
#GOLDENDALE 1NE N/A         58  30  34  SW3     N/A
#GOLDENDALE 4W  N/A         58  52  80  W3      30.01R
#GOODNOE HILLS  N/A         61  44  53  W13     N/A
#LYLE 6NE       N/A         58  48  69  SW9G24  29.91S
$$

WAZ026-300510-
KITTITAS VALLEY

CITY            SKY/WX      TMP DP  RH  WIND    PRES   REMARKS
ELLENSBURG AP   MOCLDY      59  45  60  NW16    29.93R
#ELLENSBURG CWU N/A         58  44  60  NW16    29.84S
#ELLENSBURG 3NE N/A         57  47  69  N10     29.93R
#ELLENSBURG 1E  N/A         59  N/A N/A NW1     N/A
#KITTITAS 4N    N/A         56  45  66  NW2     29.93R
#KITTITAS 3S    N/A         58  47  67  CALM    29.90R
#THORP 6N       N/A         55  45  69  W16G29  29.93S
$$

WAZ027-300510-
YAKIMA VALLEY

CITY            SKY/WX      TMP DP  RH  WIND    PRES   REMARKS
SUNNYSIDE AP    PTCLDY      56  47  72  N3      29.89R HAZE
YAKIMA AIRPORT  CLOUDY      69  46  44  NW6     29.90S
YAKIMA-VAGABOND CLEAR       63  43  48  E10     29.89S
#GRANDVIEW      N/A         63  45  52  CALM    29.88S
#MABTON         N/A         66  46  48  W1      29.88R
#NACHES 2SW     N/A         61  47  60  W12     29.92S
#TERRACE HTS    N/A         63  47  56  CALM    29.83S
#TOPPENISH      N/A         67  50  54  CALM    29.79R
#WEST VALLEY    N/A         67  48  50  N5      29.85R
#WHITE SWAN 5E  N/A         68  50  53  N1      29.86R
$$

WAZ028-300510-
LOWER COLUMBIA BASIN...WASHINGTON

CITY            SKY/WX      TMP DP  RH  WIND    PRES   REMARKS
PASCO           PTCLDY      66  48  52  E5      29.89S
PROSSER AWOS    N/A         61  46  58  CALM    29.92R
RICHLAND AWOS   PTCLDY      66  48  52  CALM    29.88S
#BENTON CITY    N/A         67  46  47  CALM    29.78R
#CONNELL 5N     N/A         63  44  50  CALM    29.88R
#CONNELL 5NW    N/A         60  44  55  CALM    29.84S
#ELTOPIA 6NW    N/A         65  50  58  CALM    28.87S
#KAHLOTUS       N/A         70  43  38  CALM    29.87R
#KENNEWICK 3S   N/A         70  48  46  N3      29.87S
#PATERSON       N/A         68  51  55  W8      29.87R
#SAGEMOOR 2W    N/A         66  50  56  CALM    29.72S
#TOUCHET 2S     N/A         64  47  54  N2      29.86R
#WEST PASCO     N/A         69  48  47  S1      29.85S
$$

WAZ029-300510-
FOOTHILLS OF THE BLUES...WASHINGTON

CITY            SKY/WX      TMP DP  RH  WIND    PRES   REMARKS
WALLA WALLA AP  PTCLDY      67  44  43  S8      29.94R
#CLYDE 6NW      N/A         59  40  49  CALM    29.87R
#DAYTON SCHOOL  N/A         63  40  43  NE1     29.94R
#LOWDEN 2SE     N/A         62  52  70  E2      29.88R
#PLEASANT VIEW 1N/A         67  41  39  SW2     29.90S
#PRESCOTT       N/A         57  48  72  CALM    29.90R
#WHITMAN COLLEGEN/A         67  48  50  CALM    29.95R
#WAITSBURG 5S   N/A         64  42  45  CALM    29.97R
#WALLA WALLA U  N/A         67  48  50  CALM    29.90R
#WHITMAN MISSIONN/A         63  53  70  CALM    29.91R
$$

WAZ030-300510-
BLUE MOUNTAINS...WASHINGTON

CITY            SKY/WX      TMP DP  RH  WIND    PRES   REMARKS
#DIXIE 5SE      N/A         65  42  43  N6      29.94R
$$

ORZ009-041-WAZ024-300510-
COLUMBIA RIVER GORGE

CITY            SKY/WX      TMP DP  RH  WIND    PRES   REMARKS
HOOD RIVER AP   CLOUDY      61  45  56  NW3     29.98F
THE DALLES AP   MOCLDY      65  44  46  W13     29.95F
#ARLINGTON AIRPON/A         64  45  50  W10     29.92R
#CELILO DOT     N/A         65  46  50  SW8     N/A
#MOSIER 1S      N/A         60  33  36  NW6     29.97S
#MURDOCK        N/A         65  46  50  W12     29.92R
#RUFUS DOT      N/A         67  44  43  W16     N/A
#SMITHVILLE     N/A         64  46  52  W15G24  29.90R

$$

ORZ510-300510-
NORTH CENTRAL OREGON

CITY            SKY/WX      TMP DP  RH  WIND    PRES   REMARKS
#ANTELOPE       N/A         61  46  58  CALM    29.78R
#CHENOWITH 1W   N/A         56  43  62  NW30    N/A
#COW CYN RST AREN/A         60  N/A N/A N8      N/A
#DUFUR 9E       N/A         55  40  57  W7      29.99R
#GRASS VALLEY 1SN/A         54  43  66  NW1     29.96R
#KENT DOT       N/A         56  40  55  CALM    N/A
#MAUPIN SCHOOL  N/A         65  45  48  W1      29.99R
#SHANIKO 5WSW   N/A         56  40  55  N9      N/A
#SHANIKO 4NW    N/A         55  44  66  N8      30.01S
#TYGH VALLEY 2NEN/A         61  46  58  N2      29.93R
#WAPANITIA AIRPON/A         60  44  55  W10     29.95R
#WASCO DOT      N/A         58  42  55  SW7     N/A
#WASCO AIRPORT  N/A         57  43  59  W13     N/A
#WASCO 5NE      N/A         56  44  64  SW7     29.93R
$$

ORZ511-300510-
CENTRAL OREGON

CITY            SKY/WX      TMP DP  RH  WIND    PRES   REMARKS
BEND AIRPORT    CLOUDY      59  46  62  CALM    30.02R
MADRAS AIRPORT  PTCLDY      61  48  62  NE3     30.01R
PRINEVILLE AP   MOCLDY      57  36  45  CALM    30.00S
REDMOND AIRPORT CLOUDY      58  48  69  CALM    30.00R
#ASHWOOD SCHOOL N/A         62  39  43  CALM    29.96R
#BEND 1SW       N/A         61  39  44  CALM    N/A
#BEND-AWBREY    N/A         61  42  50  CALM    29.89R
#BEND-KIM LN    N/A         58  42  55  S1      29.92R
#CULVER         N/A         58  45  62  NE1     29.84S
#CULVER 8W      N/A         60  46  60  CALM    29.99R
#LAKE BILLY CHINN/A         60  N/A N/A N6      30.05R
#MADRAS 4S      N/A         60  19  20  CALM    30.06R
#POWELL BUTTE 3EN/A         61  38  42  E1      N/A
#PRINEVILLE 3N  N/A         56  42  59  E2      29.90R

$$


ORZ509-300510-
EAST SLOPES OF OREGON CASCADES

CITY            SKY/WX      TMP DP  RH  WIND    PRES   REMARKS
#BLUE BOX PASS  N/A         47  N/A N/A CALM    N/A
#CAMP SHERMAN   N/A         59  43  55  S2      30.03F
#LA PINE DOT    N/A         59  33  37  CALM    N/A
#LA PINE 4NW    N/A         56  37  49  CALM    29.96R
#LAVA BUTTE DOT N/A         61  30  31  SE3     N/A
#SISTERS AIRPOR N/A         57  48  72  CALM    30.17S
#SISTERS ODOT   N/A         58  N/A N/A SE2     N/A
#SISTERS 3N     N/A         58  40  51  W3      30.00R
#SUNRIVER       N/A         60  35  39  CALM    29.94R
#SUTTLE LK DOT  N/A         51  43  74  SW2     N/A
#TUMALO 3W      N/A         59  41  51  CALM    29.76R
#WANOGA BUTTE D N/A         57  12  16  W3      N/A

$$

ORZ044-300510-
LOWER COLUMBIA BASIN...OREGON

CITY            SKY/WX      TMP DP  RH  WIND    PRES   REMARKS
HERMISTON       PTCLDY      70  47  44  SW8     29.91R
#BOARDMAN SCHOOLN/A         68  45  44  SW8     29.89R
#BOARDMAN 8SW   N/A         64  46  52  SW10    29.90R
#ECHO 8SW       N/A         67  46  47  SW5     29.92S
#I-84 EX 198 DOTN/A         69  47  45  E6      N/A
#UMATILLA       N/A         69  47  45  CALM    29.83R
$$

ORZ507-300510-
NORTHERN FOOTHILLS OF THE BLUES

CITY            SKY/WX      TMP DP  RH  WIND    PRES   REMARKS
PENDLETON AIRPT MOCLDY      65  42  43  E6      29.93S
#ADAMS 3WNW     N/A         63  45  52  NE2     29.88S
#ATHENA         N/A         62  47  58  CALM    29.93R
#CAYUSE         N/A         66  47  50  N1      29.88S
#HELIX SCHOOL   N/A         63  45  52  CALM    29.91R
#HELIX 3N       N/A         63  42  46  CALM    29.93R
#HELIX 6SW      N/A         63  44  50  CALM    29.93R
#HOLDMAN 5SE    N/A         61  43  51  CALM    29.93R
#HOLDMAN 6E     N/A         66  43  43  CALM    29.70S
#M-F GROVE ELEM N/A         64  42  45  CALM    29.92R
#M-FREEWATER 5SEN/A         61  49  65  N5      29.92R
#PENDLETON DNTN N/A         67  43  42  SW1     29.92S
#PDT AQUATIC CTRN/A         66  40  38  N3      29.93S
#PDT SUNRIDGE   N/A         64  45  50  NE2     29.90F
#PENDLETON 7NW  N/A         62  47  58  CALM    32.46S
#PILOT ROCK 1S  N/A         64  42  45  E5      29.96F
#PILOT ROCK     N/A         63  44  50  SW2     29.97F
#TUTUILLA       N/A         63  47  56  CALM    29.91R
#UMAPINE 2E     N/A         65  52  63  E6      29.86R
#WESTON SCHOOL  N/A         71  42  35  N7      29.77F

$$

ORZ508-300510-
SOUTHERN FOOTHILLS OF THE BLUES

CITY            SKY/WX      TMP DP  RH  WIND    PRES   REMARKS
LEXINGTON       PTCLDY      63  41  44  W10     30.00S
#AJAX           N/A         58  39  49  S5      27.76R
#CONDON SCHOOL  N/A         58  45  62  CALM    29.97R
#CONDON 5W      N/A         58  42  55  W3      29.99R
#FOSSIL SCHOOL  N/A         62  47  58  CALM    29.96R
#HEPPNER EOC    N/A         61  44  53  CALM    29.86F
#HEPPNER 4NE    N/A         58  43  57  SW5     29.91F
#LEXINGTON 2SE  N/A         59  43  55  CALM    29.94F
#RUGGS 5NE      N/A         57  41  55  W3      30.17S
#RUGGS 2SW      N/A         58  44  60  E1      29.93S

$$

ORZ502-503-300510-
BLUE MOUNTAINS

CITY            SKY/WX      TMP DP  RH  WIND    PRES   REMARKS
MEACHAM         MOCLDY      58  39  49  CALM    30.04R
#BATTLE MTN DOT N/A         58  41  53  CALM    N/A
#CUTSFORTH PARK N/A         49  43  80  CALM    29.81F
#GREENHORN 9SW  N/A         56  36  47  CALM    26.20R
#HARDMAN 10S    N/A         55  45  69  CALM    30.00F
#HEPPNER 15SE   N/A         52  43  71  CALM    25.57F
#LADD CREEK ODOTN/A         67  47  49  W2      N/A
#LONG CREEK HS  N/A         57  47  69  W2      30.02R
#N POWDER DOT   N/A         64  44  48  N15     N/A
#PIKES PEAK     N/A         65  41  41  SW14    27.99S
#TOLLGATE       N/A         55  41  59  N1      29.95R
#TROY SCHOOL    N/A         66  56  70  CALM    29.70S
#UKIAH          N/A         57  48  72  CALM    29.85S
#WESTON 4E      N/A         62  43  50  CALM    29.86R
$$

ORZ505-300510-
JOHN DAY BASIN

CITY            SKY/WX      TMP DP  RH  WIND    PRES   REMARKS
JOHN DAY        PTCLDY      65  42  43  W8      30.01R
#DAYVILLE SCHOOLN/A         70  41  35  CALM    29.94R
#MITCHELL       N/A         65  50  58  CALM    30.17R
#MITCHELL 8NW   N/A         61  42  50  CALM    30.08R
#MONUMENT HS    N/A         69  44  40  E2      29.88R
#MT. VERNON 5SE N/A         66  43  43  SE1     29.97R
#SPRAY SCHOOL   N/A         64  N/A N/A CALM    N/A
$$

ORZ506-300510-
OCHOCO AND JOHN DAY HIGHLANDS

CITY            SKY/WX      TMP DP  RH  WIND    PRES   REMARKS
#BUCK CREEK DOT N/A         69  38  32  W5      N/A
#HORSE RIDGE DO N/A         62  37  39  NW3     N/A
#KEYES SMT DOT  N/A         60  43  53  W15     N/A
#PAULINA SCHOOL N/A         67  37  33  NW3     N/A
#PINE MTN OBS   N/A         54  36  50  CALM    N/A
#SENECA         N/A         59  N/A N/A N1      N/A
#SENECA 9NW     N/A         55  33  43  CALM    29.87R
$$

ORZ049-300510-
GRANDE RONDE VALLEY

CITY            SKY/WX      TMP DP  RH  WIND    PRES   REMARKS
LA GRANDE       MOCLDY      68  39  35  W14     29.97R
#COVE SCHOOL    N/A         65  46  50  CALM    30.00R
#COVE 6NW       N/A         65  44  46  W2      29.85R
#ELGIN 3N       N/A         64  44  48  N1      29.94R
#ELGIN 1E       N/A         64  49  58  CALM    N/A
#IMBLER SCHOOL  N/A         64  45  50  N3      29.93R
#ISLAND CITY 4N N/A         55  47  74  CALM    30.06S
#LADD CYN DOT   N/A         69  47  45  W6      N/A
#LA GRANDE ELEM N/A         68  44  42  W7      30.00R
#UNION 1S       N/A         64  47  54  N3      29.86R
$$

ORZ050-300510-
WALLOWA COUNTY

CITY            SKY/WX      TMP DP  RH  WIND    PRES   REMARKS
JOSEPH AIRPORT  MOCLDY      54  43  66  S3      30.04S
#IMNAHA SCHOOL  N/A         71  46  41  CALM    29.91R
#IMNAHA 10S     N/A         70  43  38  SW1     29.95R
#JOSEPH 3N      N/A         54  41  61  CALM    30.05R
#JOSEPH 3W      N/A         59  45  60  SW3     29.90S
#LOSTINE        N/A         61  47  60  CALM    29.67S
#LOSTINE 3SE    N/A         62  42  48  S3      29.99R
#MT HOWARD 8000 N/A         56  34  43  SE8     30.25S
#PROMISE 1S     N/A         61  47  60  SE1     29.97F
#WALLOWA SCHOOL N/A         60  49  67  CALM    29.93R



$$



USA.gov is the U.S. government's official web portal to all federal, state and local government web resources and services.